| time (UTC) | temp F | wind direction | speed MPH | gust MPH | rain 1hr in | rain 24hr in | rain mn in | humidity % | barometer mb |
| 20260503184551 | 90 | 137 | 2.0 | 12.0 | 0.00 | 0.00 | 0.00 | 23 | 1007.5 |
| 20260503183048 | 90 | 184 | 3.0 | 9.0 | 0.00 | 0.00 | 0.00 | 20 | 1007.7 |
| 20260503181556 | 90 | 213 | 3.0 | 10.0 | 0.00 | 0.00 | 0.00 | 20 | 1007.9 |
| 20260503180042 | 88 | 130 | 5.0 | 11.0 | 0.00 | 0.00 | 0.00 | 20 | 1008.0 |
| 20260503174542 | 88 | 98 | 4.0 | 10.0 | 0.00 | 0.00 | 0.00 | 21 | 1008.2 |
| 20260503173053 | 88 | 141 | 4.0 | 9.0 | 0.00 | 0.00 | 0.00 | 22 | 1008.3 |
| 20260503171542 | 87 | 108 | 3.0 | 11.0 | 0.00 | 0.00 | 0.00 | 24 | 1008.3 |
| 20260503081526 | 76 | 94 | 0.0 | 4.0 | 0.00 | 0.00 | 0.00 | 23 | 1007.9 |
| 20260503071514 | 77 | 46 | 1.0 | 3.0 | 0.00 | 0.00 | 0.00 | 22 | 1008.0 |
| 20260503060112 | 78 | 59 | 0.0 | 2.0 | 0.00 | 0.00 | 0.00 | 22 | 1007.6 |
| 20260503054537 | 79 | 98 | 0.0 | 3.0 | 0.00 | 0.00 | 0.00 | 21 | 1007.6 |
| 20260503053039 | 80 | 37 | 1.0 | 6.0 | 0.00 | 0.00 | 0.00 | 20 | 1007.5 |
| 20260503051504 | 80 | 66 | 1.0 | 4.0 | 0.00 | 0.00 | 0.00 | 20 | 1007.6 |
| 20260503050005 | 80 | 79 | 0.0 | 1.0 | 0.00 | 0.00 | 0.00 | 20 | 1007.4 |
| 20260503050003 | 80 | 80 | 0.0 | 1.0 | 0.00 | 0.00 | 0.00 | 20 | 1007.4 |
| 20260503044535 | 80 | 59 | 0.0 | 1.0 | 0.00 | 0.00 | 0.00 | 21 | 1007.3 |
| 20260503043030 | 80 | 58 | 0.0 | 1.0 | 0.00 | 0.00 | 0.00 | 20 | 1007.0 |
| 20260503041604 | 80 | 59 | 0.0 | 0.0 | 0.00 | 0.00 | 0.00 | 20 | 1006.9 |
| 20260503040057 | 81 | 58 | 0.0 | 0.0 | 0.00 | 0.00 | 0.00 | 20 | 1006.7 |
| 20260503034525 | 80 | 59 | 0.0 | 0.0 | 0.00 | 0.00 | 0.00 | 20 | 1006.5 |
| 20260503033038 | 80 | 59 | 0.0 | 1.0 | 0.00 | 0.00 | 0.00 | 20 | 1006.3 |
| 20260503031522 | 79 | 214 | 0.0 | 0.0 | 0.00 | 0.00 | 0.00 | 21 | 1006.3 |
| 20260503030019 | 81 | 214 | 0.0 | 0.0 | 0.00 | 0.00 | 0.00 | 19 | 1006.2 |
| 20260503024512 | 83 | 214 | 0.0 | 0.0 | 0.00 | 0.00 | 0.00 | 18 | 1006.1 |
| 20260503023026 | 85 | 214 | 0.0 | 1.0 | 0.00 | 0.00 | 0.00 | 16 | 1006.0 |
| 20260503021538 | 86 | 214 | 0.0 | 0.0 | 0.00 | 0.00 | 0.00 | 16 | 1006.0 |
| 20260503020032 | 87 | 214 | 0.0 | 2.0 | 0.00 | 0.00 | 0.00 | 15 | 1006.0 |
| 20260503014525 | 88 | 203 | 0.0 | 2.0 | 0.00 | 0.00 | 0.00 | 15 | 1006.1 |
| 20260503013024 | 89 | 278 | 0.0 | 4.0 | 0.00 | 0.00 | 0.00 | 14 | 1006.1 |
| 20260503011523 | 89 | 284 | 0.0 | 3.0 | 0.00 | 0.00 | 0.00 | 16 | 1006.2 |
| 20260503010030 | 90 | 220 | 0.0 | 4.0 | 0.00 | 0.00 | 0.00 | 16 | 1006.2 |
| 20260503004552 | 91 | 258 | 1.0 | 4.0 | 0.00 | 0.00 | 0.00 | 14 | 1006.3 |
| 20260503003059 | 91 | 32 | 1.0 | 5.0 | 0.00 | 0.00 | 0.00 | 14 | 1006.4 |
| 20260503001547 | 93 | 98 | 0.0 | 2.0 | 0.00 | 0.00 | 0.00 | 14 | 1006.3 |
| 20260503000059 | 91 | 124 | 1.0 | 4.0 | 0.00 | 0.00 | 0.00 | 15 | 1006.4 |
| 20260502234546 | 92 | 281 | 1.0 | 5.0 | 0.00 | 0.00 | 0.00 | 15 | 1006.4 |
| 20260502233042 | 92 | 259 | 0.0 | 5.0 | 0.00 | 0.00 | 0.00 | 14 | 1006.5 |
| 20260502231544 | 93 | 275 | 1.0 | 5.0 | 0.00 | 0.00 | 0.00 | 15 | 1006.6 |
| 20260502230037 | 93 | 96 | 1.0 | 6.0 | 0.00 | 0.00 | 0.00 | 17 | 1006.7 |
| 20260502224535 | 93 | 290 | 4.0 | 8.0 | 0.00 | 0.00 | 0.00 | 14 | 1006.9 |
| 20260502223033 | 94 | 262 | 0.0 | 4.0 | 0.00 | 0.00 | 0.00 | 15 | 1007.0 |
| 20260502221528 | 93 | 286 | 1.0 | 5.0 | 0.00 | 0.00 | 0.00 | 15 | 1007.2 |
| 20260502220025 | 93 | 303 | 2.0 | 9.0 | 0.00 | 0.00 | 0.00 | 14 | 1007.5 |
| 20260502214522 | 93 | 226 | 1.0 | 7.0 | 0.00 | 0.00 | 0.00 | 16 | 1007.8 |
| 20260502213025 | 93 | 116 | 2.0 | 8.0 | 0.00 | 0.00 | 0.00 | 14 | 1008.1 |
| 20260502211554 | 91 | 262 | 3.0 | 8.0 | 0.00 | 0.00 | 0.00 | 16 | 1008.1 |
| 20260502210045 | 92 | 286 | 4.0 | 11.0 | 0.00 | 0.00 | 0.00 | 16 | 1008.4 |
| 20260502204541 | 92 | 327 | 1.0 | 5.0 | 0.00 | 0.00 | 0.00 | 16 | 1008.6 |
| 20260502203037 | 92 | 129 | 1.0 | 6.0 | 0.00 | 0.00 | 0.00 | 19 | 1008.8 |
| 20260502201534 | 92 | 45 | 2.0 | 6.0 | 0.00 | 0.00 | 0.00 | 17 | 1009.1 |
| 20260502200039 | 92 | 266 | 0.0 | 7.0 | 0.00 | 0.00 | 0.00 | 17 | 1009.3 |
| 20260502194532 | 91 | 143 | 4.0 | 9.0 | 0.00 | 0.00 | 0.00 | 17 | 1009.6 |
| 20260502193025 | 90 | 20 | 2.0 | 10.0 | 0.00 | 0.00 | 0.00 | 21 | 1009.7 |
| 20260502191522 | 90 | 46 | 2.0 | 11.0 | 0.00 | 0.00 | 0.00 | 18 | 1010.0 |
| 20260502190020 | 90 | 107 | 2.0 | 7.0 | 0.00 | 0.00 | 0.00 | 19 | 1010.2 |